Flag for Faroe Islands Weather past 2 weeks in Tórshavn, Faroe Islands, Faroe Islands

Now
39 °F

Sprinkles. Partly sunny.


Feels Like: 29 °F
Forecast: 36 / 45 °F
Wind: 23 mph from Southeast

Location: Soervaag / Vagar

Current Time: Apr 28, 2015 at 8:18:28 AM

Latest Report: Apr 28, 2015 at 7:50 AM


Visibility: N/A

Pressure: 29.39 "Hg

Humidity: 87%

Dew point: 36 °F

Location of TórshavnLocation

Historic Weather in Tórshavn — Graph

°F

Tórshavn temperature yesterday

Maximum temperature yesterday: 39 °F (at 3:20 PM)
Minimum temperature yesterday: 34 °F (at 2:20 AM)
Average temperature yesterday: 37 °F

Past Weeks' High & Low Weather Summary

 TemperatureHumidityPressure
High48 °F (Apr 17, 12:20 PM)100% (Apr 13, 6:50 PM)30.54 "Hg (Apr 13, 6:50 PM)
Low30 °F (Apr 24, 7:50 AM)53% (Apr 23, 3:50 PM)29.24 "Hg (Apr 27, 9:50 PM)
Average41 °F83%29.94 "Hg
* Reported Apr 13 7:20 AM — Apr 28 7:20 AM, Tórshavn, Weather by CustomWeather, © 2015

Note: Actual official high and low records may vary slightly from our data, if they occured in-between our weather recording intervals... More about our weather records

Advertising

Tórshavn weather history for previous 24 hours

 ConditionsComfort  
Time TempWeatherWind HumidityBarometerVisibility
7:20 AM
Tue, Apr 28
39 °FSprinkles. Partly sunny.23 mph93%29.36 "HgN/A
6:50 AM41 °FPartly sunny.21 mph87%29.36 "HgN/A
6:20 AM39 °FSprinkles. Passing clouds.20 mph93%29.33 "HgN/A
5:50 AM39 °FSprinkles. Passing clouds.21 mph87%29.33 "Hg3 mi
5:20 AM39 °FSprinkles. Passing clouds.18 mph93%29.33 "HgN/A
4:20 AM39 °FSprinkles. Passing clouds.20 mph87%29.30 "HgN/A
3:50 AM39 °FPassing clouds.16 mph93%29.27 "HgN/A
3:20 AM39 °FPassing clouds.17 mph87%29.27 "HgN/A
2:50 AM39 °FSprinkles. Passing clouds.16 mph87%29.27 "HgN/A
2:20 AM39 °FSprinkles. Passing clouds.18 mph87%29.27 "HgN/A
1:50 AM39 °FSprinkles. Overcast.17 mph87%29.27 "HgN/A
1:20 AM39 °FPassing clouds.18 mph87%29.24 "HgN/A
12:50 AM39 °FPassing clouds.14 mph87%29.24 "HgN/A
12:20 AM39 °FLight rain. Low clouds.17 mph87%29.24 "HgN/A
11:50 PM
Mon, Apr 27
39 °FPassing clouds.20 mph87%29.24 "HgN/A
11:20 PM37 °FSprinkles. Passing clouds.16 mph93%29.24 "HgN/A
10:20 PM37 °FSprinkles. Mostly cloudy.12 mph93%29.24 "HgN/A
9:50 PM36 °FRain showers. Partly sunny.14 mph93%29.24 "Hg3 mi
9:20 PM37 °FRain showers. Partly sunny.22 mph87%29.27 "Hg4 mi
8:50 PM37 °FDrizzle. Overcast.22 mph93%29.27 "HgN/A
8:20 PM39 °FSprinkles. Partly sunny.22 mph87%29.27 "HgN/A
7:50 PM39 °FSprinkles. Partly sunny.18 mph87%29.27 "HgN/A
7:20 PM39 °FSprinkles. Partly sunny.20 mph87%29.27 "HgN/A
6:50 PM39 °FOvercast.17 mph87%29.27 "HgN/A
6:20 PM39 °FOvercast.24 mph81%29.27 "HgN/A
5:50 PM39 °FPartly sunny.16 mph87%29.27 "HgN/A
5:20 PM37 °FSprinkles. Low clouds.28 mph87%29.27 "HgN/A
4:50 PM37 °FRain showers. Partly sunny.24 mph93%29.27 "Hg2 mi
4:20 PM39 °FSprinkles. Partly sunny.26 mph87%29.27 "HgN/A
3:50 PM39 °FSprinkles. Overcast.23 mph87%29.27 "HgN/A
3:20 PM39 °FSprinkles. Low clouds.23 mph87%29.27 "HgN/A
2:50 PM37 °FSprinkles. Low clouds.23 mph93%29.30 "HgN/A
2:20 PM37 °FLight rain. Low clouds.25 mph87%29.30 "HgN/A
1:50 PM37 °FLight rain. Partly sunny.25 mph87%29.30 "Hg5 mi
1:20 PM37 °FDrizzle. Partly sunny.28 mph87%29.30 "Hg5 mi
12:50 PM37 °FSprinkles. Low clouds.32 mph87%29.30 "Hg5 mi
12:20 PM37 °FSprinkles. Partly sunny.31 mph87%29.30 "HgN/A
11:50 AM37 °FSprinkles. Partly sunny.31 mph87%29.30 "Hg6 mi
11:20 AM37 °FOvercast.32 mph87%29.30 "HgN/A
10:50 AM37 °FPartly sunny.35 mph87%29.30 "HgN/A
10:20 AM37 °FSprinkles. Partly sunny.35 mph81%29.33 "HgN/A
9:50 AM37 °FSprinkles. Partly sunny.33 mph81%29.33 "HgN/A
9:20 AM36 °FSprinkles. Partly sunny.37 mph87%29.33 "HgN/A
8:50 AM36 °FSprinkles. Partly sunny.35 mph87%29.33 "HgN/A
8:20 AM34 °FSprinkles. Partly sunny.35 mph87%29.33 "HgN/A
Weather by CustomWeather, © 2015

See weather overviewHow to use our weather pages